Home   Weather   Yakima   Past weeks
Flag for USA

Past Weather in Yakima, Washington, USA — Yesterday and Last 2 Weeks

Now
40 °F

Passing clouds.


Feels Like: 36 °F
Forecast: 60 / 36 °F
Wind: 6 mph from West

Location: Yakima Air Terminal

Current Time: Oct 14, 2019 at 1:13:36 am

Latest Report: Oct 13, 2019 at 11:53 pm


Visibility: 10 mi

Pressure: 29.98 "Hg

Humidity: 73%

Dew Point: 32 °F

Location of YakimaLocation

Past Weather in Yakima — Graph

°F

Yakima Temperature Yesterday

Maximum temperature yesterday: 60 °F (at 2:53 pm)
Minimum temperature yesterday: 36 °F (at 12:53 am)
Average temperature yesterday: 48 °F

High & Low Weather Summary for the Past Weeks

 TemperatureHumidityPressure
High69 °F (Oct 7, 5:53 pm)89% (Oct 1, 4:53 am)30.56 "Hg (Oct 1, 4:53 am)
Low22 °F (Oct 10, 5:53 am)23% (Oct 9, 1:53 pm)29.68 "Hg (Oct 8, 2:53 am)
Average46 °F58%30.13 "Hg
* Reported Sep 28 11:53 pm — Oct 13 11:53 pm, Yakima. Weather by CustomWeather, © 2019

Note: Actual official high and low records may vary slightly from our data, if they occured in-between our weather recording intervals... More about our weather records

Advertising

Yakima Weather History for the Previous 24 Hours

Scroll right to see more
 ConditionsComfort  
Time TempWeatherWind HumidityBarometerVisibility
11:53 pm
Sun, Oct 13
40 °FPassing clouds.6 mph73%29.98 "Hg10 mi
10:53 pm45 °FOvercast.5 mph65%29.97 "Hg10 mi
9:53 pm44 °FOvercast.7 mph71%29.96 "Hg10 mi
8:53 pm53 °FOvercast.3 mph55%29.94 "Hg10 mi
7:53 pm53 °FPassing clouds.7 mph55%29.93 "Hg10 mi
6:53 pm52 °FPassing clouds.No wind49%29.92 "Hg10 mi
5:53 pm59 °FOvercast.3 mph38%29.89 "Hg10 mi
4:53 pm60 °FOvercast.No wind35%29.89 "Hg10 mi
3:53 pm60 °FPartly sunny.No wind35%29.88 "Hg10 mi
2:53 pm60 °FPartly sunny.6 mph33%29.88 "Hg10 mi
1:53 pm59 °FPartly sunny.6 mph35%29.89 "Hg10 mi
12:53 pm57 °FPartly sunny.6 mph37%29.91 "Hg10 mi
11:53 am56 °FBroken clouds.6 mph42%29.94 "Hg10 mi
10:53 am53 °FPartly sunny.3 mph45%29.95 "Hg10 mi
9:53 am46 °FPartly sunny.No wind71%29.96 "Hg10 mi
8:53 am45 °FOvercast.No wind68%29.96 "Hg10 mi
7:53 am42 °FOvercast.3 mph76%29.95 "Hg10 mi
6:53 am41 °FLight rain. Overcast.3 mph76%29.95 "Hg10 mi
5:53 am41 °FOvercast.3 mph65%29.94 "Hg10 mi
4:53 am41 °FMostly cloudy.7 mph67%29.94 "Hg10 mi
3:53 am39 °FOvercast.5 mph70%29.93 "Hg10 mi
2:53 am41 °FPassing clouds.5 mph60%29.94 "Hg10 mi
1:53 am37 °FPassing clouds.6 mph70%29.96 "Hg10 mi
Weather by CustomWeather, © 2019

See weather overview